• Processing (Info)

  • MPEC 2016-N46 : 2016 NG15

    The following Minor Planet Electronic Circular may be linked-to from your own Web pages, but must not otherwise be redistributed electronically.

    A form allowing access to any MPEC is at the bottom of this page.


    Read MPEC 2016-N45 Read MPEC 2016-N47


    M.P.E.C. 2016-N46                                Issued 2016 July 7, 15:43 UT
    
         The Minor Planet Electronic Circulars contain information on unusual
             minor planets and routine data on comets.  They are published
        on behalf of Division F of the International Astronomical Union by the
              Minor Planet Center, Smithsonian Astrophysical Observatory,
                              Cambridge, MA 02138, U.S.A.
    
                 Prepared using the Tamkin Foundation Computer Network
    
                                  MPC@CFA.HARVARD.EDU
                URL https://www.minorplanetcenter.net/    ISSN 1523-6714
    
                                       2016 NG15
    
    Observations:
         K16N15G* C2016 07 05.25614 16 46 04.16 -09 16 44.7          19.3 VqEN046G96
         K16N15G  C2016 07 05.26634 16 46 01.69 -09 16 01.6          19.7 VqEN046G96
         K16N15G  C2016 07 05.27140 16 46 00.47 -09 15 40.0          19.9 VqEN046G96
         K16N15G  C2016 07 05.32431 16 45 47.62 -09 11 54.3          19.9 VqEN046G96
         K16N15G  C2016 07 05.33244 16 45 45.67 -09 11 20.3          19.8 VqEN046G96
         K16N15G  C2016 07 05.34061 16 45 43.69 -09 10 45.0          19.5 VqEN046G96
         K16N15G HC2016 07 05.34271 16 45 43.21 -09 10 36.0          19.9 VoEN046691
         K16N15G  C2016 07 05.34872 16 45 41.72 -09 10 10.2          19.9 VqEN046G96
         K16N15G HC2016 07 05.34875 16 45 41.77 -09 10 10.5          21.2 VoEN046691
         K16N15G  C2016 07 05.35099 16 45 42.241-09 09 57.65         20.2 wLEN046F51
         K16N15G HC2016 07 05.35479 16 45 40.28 -09 09 44.1          20.5 VoEN046691
         K16N15G  C2016 07 05.36134 16 45 39.694-09 09 13.53         20.1 wLEN046F51
         K16N15G  C2016 07 05.38211 16 45 34.608-09 07 44.87         20.1 wLEN046F51
         K16N15G KC2016 07 05.85771 16 43 43.38 -08 33 59.3                uEN046104
         K16N15G KC2016 07 05.86220 16 43 42.28 -08 33 39.4          19.2 RuEN046104
         K16N15G KC2016 07 05.87150 16 43 40.03 -08 32 58.4          19.3 RuEN046104
         K16N15G KC2016 07 05.92140816 43 27.97 -08 29 24.1          20.2  qEN046B04
         K16N15G KC2016 07 05.92840 16 43 26.44 -08 28 55.9                qEN046J95
         K16N15G KC2016 07 05.93284816 43 25.16 -08 28 34.6          20.4  qEN046B04
         K16N15G KC2016 07 05.93572 16 43 24.72 -08 28 23.7                qEN046J95
         K16N15G KC2016 07 05.94281 16 43 22.98 -08 27 53.4          19.6 RqEN046J95
         K16N15G KC2016 07 05.94422216 43 22.40 -08 27 45.7          20.4  qEN046B04
         K16N15G KC2016 07 06.17465016 42 28.38 -08 11 08.8          20.1 VuEN046H21
         K16N15G KC2016 07 06.18040116 42 26.98 -08 10 43.9          20.0 VuEN046H21
         K16N15G KC2016 07 06.18595116 42 25.63 -08 10 20.0          20.0 VuEN046H21
         K16N15G mC2016 07 06.22773 16 42 15.98 -08 07 16.6          20.2 VoEN046691
         K16N15G mC2016 07 06.22971 16 42 15.50 -08 07 08.0          20.5 VoEN046691
         K16N15G mC2016 07 06.23170 16 42 15.00 -08 06 59.2          20.3 VoEN046691
         K16N15G  C2016 07 06.25046 16 42 10.42 -08 05 38.3          19.5 VqEN046G96
         K16N15G  C2016 07 06.26468 16 42 06.94 -08 04 36.7          19.6 VqEN046G96
         K16N15G  C2016 07 06.27181 16 42 05.17 -08 04 05.4          19.4 VqEN046G96
         K16N15G  C2016 07 06.30271 16 41 57.64 -08 01 51.3          19.8 VqEN046G96
         K16N15G  C2016 07 06.30984 16 41 55.95 -08 01 20.2          19.7 VqEN046G96
         K16N15G  C2016 07 06.31714 16 41 54.24 -08 00 49.5          18.6 VqEN046G96
         K16N15G  C2016 07 06.32432 16 41 52.51 -08 00 17.9                qEN046G96
         K16N15G KC2016 07 06.50568 16 41 10.07 -07 46 36.3          19.4 RtEN046474
         K16N15G KC2016 07 06.50711 16 41 09.70 -07 46 30.2          19.8 RtEN046474
         K16N15G KC2016 07 06.50855 16 41 09.35 -07 46 24.0          19.8 RtEN046474
         K16N15G KC2016 07 06.50997 16 41 09.00 -07 46 17.6          19.7 RtEN046474
         K16N15G KC2016 07 06.91855 16 39 32.97 -07 17 09.1          19.6 RqEN046204
         K16N15G KC2016 07 06.93349 16 39 29.34 -07 16 03.6                qEN046204
         K16N15G IC2016 07 06.94096 16 39 27.48 -07 15 31.1                qEN046204
         K16N15G  C2016 07 07.25918 16 38 12.50 -06 52 07.1          19.5 VqEN046G96
         K16N15G  C2016 07 07.26380 16 38 11.27 -06 51 46.3          19.2 VqEN046G96
         K16N15G  C2016 07 07.26842 16 38 10.20 -06 51 25.8          19.9 VqEN046G96
         K16N15G  C2016 07 07.27304 16 38 09.05 -06 51 05.5          19.7 VqEN046G96
         K16N15G  C2016 07 07.35903 16 37 48.15 -06 44 45.7                qEN046I52
         K16N15G  C2016 07 07.36020 16 37 47.81 -06 44 39.4                qEN046I52
         K16N15G  C2016 07 07.36137 16 37 47.59 -06 44 35.1                qEN046I52
         K16N15G  C2016 07 07.36253 16 37 47.22 -06 44 29.5          20.9 VqEN046I52
    
    Observer details:
    104 San Marcello Pistoiese.  Observers P. Bacci, M. Maestripieri.  Measurers
        P. Bacci, L. Tesi, G. Fagioli.  0.60-m f/4 reflector + CCD.
    204 Schiaparelli Observatory.  Observer L. Buzzi.  0.60-m f/4.64 reflector
        + CCD.
    474 Mount John Observatory, Lake Tekapo.  Observers A. C. Gilmore,
        P. M. Kilmartin.  Measurer P. M. Kilmartin.  1.0-m f/7.7 reflector + CCD.
    691 Steward Observatory, Kitt Peak.  Observers T. H. Bressi, J. V. Scotti.
        0.9-m f/3 reflector + CCD.
    B04 OAVdA, Saint-Barthelemy.  Observer A. Carbognani.  0.81-m f/7.9 reflector
        + CCD.
    F51 Pan-STARRS 1, Haleakala.  Observers B. Gibson, T. Goggia, N. Primak,
        A. Schultz, M. Willman.  Measurers K. Chambers, S. Chastel, L. Denneau,
        H. Flewelling, M. Huber, E. Lilly, E. Magnier, R. Wainscoat, C. Waters,
        R. Weryk.  1.8-m Ritchey-Chretien + CCD.
    G96 Mt. Lemmon Survey.  Observers R. A. Kowalski, D. C. Fuls.  Measurers
        E. J. Christensen, D. C. Fuls, A. R. Gibbs, A. D. Grauer, J. A. Johnson,
        R. A. Kowalski, S. M. Larson, G. J. Leonard, R. G. Matheny, R. L. Seaman,
        F. C. Shelly.  1.5-m reflector + 10K CCD.
    H21 Astronomical Research Observatory, Westfield.  Observer R. Holmes.
        Measurers S. Foglia, L. Buzzi, T. Linder, R. Holmes.  0.61-m f/4.5
        astrograph + CCD.
    I52 Steward Observatory, Mt. Lemmon Station.  Observer A. R. Gibbs.  Measurers
        E. J. Christensen, D. C. Fuls, A. R. Gibbs, A. D. Grauer, J. A. Johnson,
        R. A. Kowalski, S. M. Larson, G. J. Leonard, R. G. Matheny, R. L. Seaman,
        F. C. Shelly.  1.0-m reflector + CCD.
    J95 Great Shefford.  Observer P. Birtwhistle.  0.40-m f/6.0 Schmidt-Cassegrain
        + CCD.
    
    Orbital elements:
    2016 NG15                                           PHA, Earth MOID = 0.0008 AU
    Epoch 2016 July 31.0 TT = JDT 2457600.5                 MPC
    M 339.63128              (2000.0)            P               Q
    n   0.38955763     Peri.  108.19819     +0.88283956     -0.25513915
    a   1.8567563      Node   268.08955     +0.11058164     +0.92889860
    e   0.6078806      Incl.   23.23804     +0.45647127     +0.26842391
    P   2.53           H   20.5           G   0.15           U   7
    Residuals in seconds of arc
    160705 G96  0.9-  0.4+    160705 J95  0.3-  0.5-    160706 G96  1.7+  0.4-
    160705 G96  0.6-  0.1+    160705 B04  0.2-  0.1+    160706 474  0.2+  0.5+
    160705 G96  0.4-  0.2+    160705 J95  0.5+  0.1+    160706 474  0.1-  0.4+
    160705 G96  0.3-  0.4+    160705 J95  0.1+  0.1-    160706 474  0.1-  0.3+
    160705 G96  0.0   0.3-    160705 B04  0.2-  0.1-    160706 474  0.2-  0.5+
    160705 G96  0.0   0.1+    160706 H21  0.4-  0.3+    160706 204  0.1-  0.7+
    160705 691  0.2+  0.0     160706 H21  0.4-  0.3+    160706 204  0.0   0.5+
    160705 G96  0.2-  0.3+    160706 H21  0.3-  0.2+    160706 204  0.6-  0.2+
    160705 691  0.5+  0.3-    160706 691  0.4-  0.2+    160707 G96  0.8+  0.3-
    160705 F51  0.1+  0.0     160706 691  0.3-  0.3+    160707 G96  0.7-  0.1+
    160705 691  0.0   0.3+    160706 691  0.5-  0.4+    160707 G96  0.3+  0.1+
    160705 F51  0.0   0.0     160706 G96  0.0   0.2+    160707 G96  0.0   0.0
    160705 F51  0.1+  0.1+    160706 G96  0.0   0.1+    160707 I52  0.5+  0.9-
    160705 104  0.1+  1.6-    160706 G96  0.4-  0.4+    160707 I52  0.4-  0.2+
    160705 104  0.0   1.0-    160706 G96  0.2-  0.2+    160707 I52  0.6+  0.6-
    160705 104  0.2+  0.0     160706 G96  0.5+  0.3+    160707 I52  0.8-  0.2-
    160705 B04  0.2+  0.1-    160706 G96  1.5+  0.7-
    
    Ephemeris:
    2016 NG15                a,e,i = 1.86, 0.61, 23                  q = 0.7281
    Date    TT    R. A. (2000) Decl.     Delta      r     Elong.  Phase     V
    2016 06 07    18 12 45.8 -30 17 47   0.5681  1.5657   162.3    11.4    20.9
    ...
    2016 06 22    17 34 20.5 -22 12 51   0.4163  1.4305   173.2     4.8    19.8
    ...
    2016 06 30    17 06 16.5 -15 05 22   0.3602  1.3559   157.2    16.9    19.8
    ...
    2016 07 06    16 43 09.9 -08 23 27   0.3312  1.2991   143.9    27.5    19.9
    2016 07 07    16 39 14.3 -07 10 54   0.3274  1.2895   141.6    29.3    19.9
    2016 07 08    16 35 18.2 -05 57 05   0.3240  1.2799   139.3    31.2    19.9
    ...
    2016 07 14    16 11 49.4 +01 44 18   0.3099  1.2223   125.4    42.7    20.0
    ...
    2016 07 22    15 41 44.7 +12 07 05   0.3057  1.1450   107.4    57.9    20.3
    ...
    2016 08 06    14 49 00.8 +29 15 24   0.3265  1.0021    78.6    82.8    21.0
    
    A. U. Tomatic                (C) Copyright 2016 MPC           M.P.E.C. 2016-N46
    

    Read MPEC 2016-N45 Read MPEC 2016-N47


    MPEC number:

    Enter an MPEC number in one of the following forms:

    • 1997-B01 (the full form)
    • J97B01 (the packed version of the full form)
    • B01 (the abbreviated form)